GFSNIL_con_mucape_000.txt.gz
CAPE
0 0 0 0 0 0 0 0 0 0 0 0 0 3 7 20 43 5 2 16 1 0
0 0 0 0 0 0 0 0 0 0 0 0 2 14 26 8 4 27 1 0 0 0
0 0 0 0 0 0 0 0 0 0 1 7 1 3 0 0 0 0 0 0 0 0
0 0 0 0 0 0 0 0 2 0 0 0 0 1 0 0 0 0 0 0 0 0
0 0 0 0 0 0 0 0 0 0 1 0 0 0 0 0 0 0 0 0 0 0
0 0 0 0 0 0 0 0 0 0 0 0 0 0 0 0 0 0 0 0 0 0
0 0 0 0 0 0 0 0 0 0 0 0 0 0 0 0 0 0 0 0 0 0
0 0 0 0 0 0 0 0 0 0 0 0 0 0 0 0 0 0 0 0 0 0
0 0 0 0 0 0 0 0 0 0 0 0 0 0 0 0 0 0 0 0 0 0
0 0 0 0 0 0 0 0 0 0 0 0 0 0 0 0 0 0 0 0 0 0
0 0 0 0 0 0 0 0 0 0 0 0 0 0 0 0 0 0 0 0 0 0
0 0 0 0 0 0 0 0 0 0 0 0 0 0 0 0 0 0 0 0 0 0
0 0 0 0 0 0 0 0 0 0 0 0 0 0 0 0 0 0 0 0 0 0
0 0 0 0 0 0 0 0 0 0 0 0 0 0 0 0 0 0 0 0 0 0

GFSNIL_con_mucape_003.txt.gz
CAPE
0 0 0 0 0 0 0 0 0 0 0 0 0 0 0 0 0 0 2 1 7 25
0 0 0 0 0 0 0 0 0 0 0 0 0 3 8 0 0 5 1 0 0 0
0 0 0 0 0 0 0 0 0 0 0 0 0 0 2 14 0 0 0 0 0 0
0 0 0 0 0 0 0 0 0 0 0 0 4 0 0 0 0 0 0 0 0 0
0 0 0 0 0 0 0 0 0 0 2 0 1 0 0 0 0 0 0 0 0 0
0 0 0 0 0 0 0 0 0 1 0 0 0 0 0 0 0 0 0 0 0 0
0 0 0 0 0 0 0 0 0 0 0 0 0 0 0 0 0 0 0 0 0 0
5 0 0 0 0 0 0 0 0 0 0 0 0 0 0 0 0 0 0 0 0 0
0 0 0 0 0 0 0 0 0 0 0 0 0 0 0 0 0 0 0 0 0 0
0 0 0 0 0 0 0 0 0 0 0 0 0 0 0 0 0 0 0 0 0 0
0 0 0 0 0 0 0 0 0 0 0 0 0 0 0 0 0 0 0 0 0 0
0 0 0 0 0 0 0 0 0 0 0 0 0 0 0 0 0 0 0 0 0 0
0 0 0 0 0 0 0 0 0 0 0 0 0 0 0 0 0 0 0 0 0 0
0 0 0 0 0 0 0 0 0 0 0 0 0 0 0 0 0 0 0 0 0 0

GFSNIL_con_mucape_006.txt.gz
CAPE
0 0 0 0 0 0 0 0 0 1 5 13 20 44 55 33 3 8 0 0 0 0
0 0 0 0 0 0 0 0 2 16 12 0 0 0 0 0 0 3 0 0 0 0
0 0 0 0 0 0 5 21 11 3 0 0 0 0 0 0 0 0 0 0 0 0
0 0 0 0 0 8 17 9 7 0 0 0 0 0 0 0 0 0 0 0 0 0
0 0 0 18 18 15 33 39 39 24 0 0 0 0 0 0 0 0 0 0 0 0
8 17 18 24 31 45 39 35 36 36 0 0 0 0 0 0 0 0 0 0 0 0
16 27 29 24 15 20 26 7 0 0 0 0 0 0 0 0 0 3 0 0 1 1
2 3 0 0 0 0 0 0 0 0 0 0 0 0 0 0 8 21 19 17 11 5
6 0 0 0 0 0 0 0 0 0 0 1 0 0 0 0 0 0 0 14 0 0
2 0 0 0 0 0 0 0 0 1 3 8 10 0 0 0 0 0 0 0 0 0
0 0 0 0 0 0 0 1 3 9 0 0 0 0 0 0 0 0 0 0 0 0
0 0 0 0 3 5 3 6 12 0 0 0 0 0 0 0 0 0 0 0 0 0
0 0 0 1 5 9 10 0 0 0 0 0 0 0 0 0 0 0 0 0 0 0
0 0 0 1 7 18 14 0 0 0 0 0 0 0 0 0 0 0 0 0 0 0

GFSNIL_con_mucape_009.txt.gz
CAPE
0 0 0 0 0 0 0 0 2 13 28 34 33 42 34 32 26 1 21 18 8 0
0 0 0 0 0 0 0 0 12 25 29 45 39 34 15 26 1 15 34 0 0 0
0 0 0 0 0 5 13 20 32 51 43 43 3 10 8 32 18 0 0 0 0 0
0 0 2 7 21 17 17 24 32 29 32 39 30 47 65 42 4 40 59 46 13 0
6 9 16 27 7 28 41 49 46 51 44 47 59 50 36 41 50 0 3 0 32 0
6 7 16 19 22 30 34 36 40 51 39 22 24 15 12 18 26 35 36 30 30 4
6 11 17 16 21 13 0 0 0 4 7 8 7 4 13 7 3 4 15 30 31 29
14 18 14 14 0 0 0 0 5 8 12 16 16 8 0 0 0 2 6 30 23 59
29 8 17 0 0 0 2 6 8 15 20 28 19 0 0 0 0 0 0 0 20 19
17 31 13 0 2 9 12 19 23 27 31 28 30 0 0 0 0 0 0 0 2 0
30 32 0 11 10 15 23 31 31 29 24 26 0 0 0 0 0 0 0 0 0 0
30 26 8 12 15 25 33 36 27 19 4 0 0 0 0 0 0 0 0 0 0 0
15 17 9 14 26 31 33 27 17 4 0 0 0 0 0 0 0 0 0 0 0 0
56 14 9 21 34 33 36 41 13 24 0 0 0 0 0 0 0 0 0 0 0 0

GFSNIL_con_mucape_015.txt.gz
CAPE
2 4 14 6 2 0 0 0 0 0 0 0 0 0 0 5 15 19 4 1 1 0
41 31 23 2 0 0 0 0 0 0 0 0 0 6 14 15 7 0 0 0 9 4
46 35 0 0 0 0 0 0 0 0 0 2 3 15 28 29 14 21 11 0 15 27
0 0 0 0 0 0 0 0 0 0 0 0 0 3 11 17 31 30 5 2 0 0
9 2 0 0 0 0 0 0 0 0 0 0 0 0 0 0 0 0 0 2 4 5
18 12 1 0 6 1 0 0 0 0 0 0 0 0 0 0 0 0 0 0 0 0
25 10 9 0 15 18 0 0 0 0 0 0 0 0 0 0 0 0 0 0 0 0
25 13 17 35 26 6 0 0 0 0 0 0 0 0 0 0 0 0 0 0 0 0
37 30 26 23 5 0 0 0 0 0 0 0 0 0 0 0 0 0 0 0 0 0
16 13 16 3 11 10 4 0 0 0 0 0 0 2 2 0 0 0 0 0 0 0
19 20 19 13 2 9 0 0 0 0 0 1 1 0 0 0 0 0 0 0 0 0
3 6 8 16 1 7 7 0 0 0 0 0 0 0 0 0 0 0 0 0 0 0
0 1 3 0 0 0 0 0 0 0 0 0 0 0 0 0 0 0 0 0 0 0
0 10 18 5 0 0 0 0 0 0 0 0 0 0 0 0 0 0 0 0 0 0

GFSNIL_con_mucape_018.txt.gz
CAPE
12 8 19 29 29 16 3 0 0 0 0 0 0 0 0 0 1 12 0 3 9 10
0 0 0 0 0 0 0 0 0 0 0 0 0 0 2 1 0 2 10 15 26 15
0 0 0 0 0 0 0 0 0 0 0 0 0 0 0 0 0 0 0 0 0 6
0 0 3 0 1 12 14 10 0 18 6 0 0 0 0 0 0 0 0 0 0 0
4 2 15 14 28 30 22 7 7 0 0 0 0 0 0 0 0 0 0 0 0 0
0 11 28 26 26 12 12 16 7 0 9 0 0 0 0 0 0 0 0 0 0 0
2 25 40 32 7 13 23 18 5 0 0 0 0 0 0 0 0 0 0 0 0 0
1 0 19 39 38 33 27 0 0 0 0 0 0 0 0 0 0 0 0 0 0 0
0 1 19 26 41 51 0 0 0 3 0 0 0 4 2 0 0 0 0 0 0 0
0 0 0 0 15 19 4 0 0 0 0 0 2 0 0 0 0 0 0 0 0 0
0 0 0 2 8 3 0 0 1 3 0 0 0 0 0 0 0 0 0 0 0 0
0 0 0 0 0 2 0 0 0 1 0 0 0 0 0 0 0 0 0 0 0 0
0 0 6 0 0 0 0 0 0 0 0 0 0 0 0 0 0 0 0 0 0 0
0 0 0 0 0 0 0 0 0 0 0 0 0 0 0 0 0 0 0 0 0 0

GFSNIL_con_mucape_021.txt.gz
CAPE
0 0 0 0 0 0 0 0 0 0 0 0 0 0 0 0 0 0 0 0 0 0
0 0 0 0 0 0 0 0 2 3 5 14 4 1 0 0 0 0 0 0 0 0
0 0 0 0 1 4 4 7 20 30 10 0 0 0 0 0 0 0 0 0 0 0
0 0 1 0 2 13 31 34 11 10 0 3 1 0 0 0 0 0 0 0 0 0
0 0 0 1 7 21 16 10 9 3 5 1 2 0 0 0 0 0 0 0 0 0
0 0 0 0 0 3 0 0 10 18 2 0 0 0 0 0 0 0 0 0 0 0
0 0 0 0 0 0 0 18 17 0 0 0 0 0 0 0 1 2 0 0 0 0
0 0 0 0 0 0 9 16 6 2 0 0 0 0 0 2 0 0 0 0 0 0
0 0 0 0 0 0 24 21 5 0 0 0 0 0 0 0 0 0 0 0 0 0
0 0 0 0 0 0 2 7 0 0 0 0 0 0 0 0 0 0 0 0 0 0
0 0 0 0 0 0 0 0 0 0 0 0 0 0 0 0 0 0 0 0 0 0
0 0 0 6 0 0 0 0 0 0 0 0 0 0 0 0 0 0 0 0 0 0
0 0 0 0 0 0 0 0 0 0 0 0 0 0 0 0 0 0 0 0 0 0
0 0 0 0 0 0 1 0 0 0 0 0 0 0 0 0 0 0 0 0 0 0

GFSNIL_con_mucape_024.txt.gz
CAPE
0 0 0 0 0 0 0 0 0 0 3 9 2 0 0 0 0 0 0 0 0 0
0 0 0 0 0 0 0 0 0 8 7 7 15 0 0 1 0 0 0 0 0 0
0 0 0 0 0 0 0 0 2 8 18 36 22 1 3 0 0 0 0 0 0 0
0 0 0 0 0 0 0 0 2 20 30 24 5 10 8 0 0 0 0 0 0 0
0 0 0 0 0 0 0 0 0 5 5 8 1 0 0 0 0 0 0 0 0 0
0 0 0 0 0 0 0 0 0 3 23 2 0 0 0 0 0 0 0 0 0 0
0 0 0 0 0 0 0 0 7 28 22 5 0 0 0 0 0 0 0 0 0 0
0 0 0 0 0 0 0 4 22 1 1 1 3 0 0 0 0 0 0 0 0 0
0 0 0 0 0 0 0 7 0 9 0 0 0 0 0 0 0 0 0 0 0 0
0 0 0 0 0 0 0 0 0 0 0 0 0 0 0 0 0 0 0 0 0 0
0 0 0 0 0 1 0 0 0 0 0 0 0 0 0 0 0 0 0 0 0 0
0 0 0 0 0 0 0 0 0 0 0 0 0 0 0 0 0 0 0 0 0 0
0 0 0 0 0 0 0 0 1 2 0 0 0 0 0 0 0 0 0 0 0 0
0 0 0 0 0 0 0 0 0 0 0 0 0 0 0 0 0 0 0 0 0 0

GFSNIL_con_mucape_027.txt.gz
CAPE
0 0 0 0 0 0 0 0 0 0 0 8 9 3 11 20 37 50 0 0 0 0
0 0 0 0 0 0 0 0 0 0 0 0 2 14 20 12 19 0 0 0 0 0
0 0 0 0 0 0 0 0 0 0 0 0 10 10 0 1 0 0 0 0 0 0
0 0 0 0 0 0 0 0 0 0 0 2 12 5 18 0 0 0 0 0 0 0
0 0 0 0 0 0 0 0 0 0 0 6 28 14 3 0 0 0 0 0 0 0
0 0 0 0 0 0 0 0 0 0 21 26 27 4 0 1 0 0 0 0 0 0
0 0 0 0 0 0 0 3 21 28 6 1 16 4 2 0 0 0 0 0 0 0
0 0 0 0 0 0 0 10 6 2 0 0 0 0 0 0 0 0 0 0 0 0
0 0 0 0 0 0 1 2 8 0 0 0 0 0 0 0 0 0 0 0 0 0
0 0 0 0 0 0 3 0 0 0 0 0 0 0 0 0 0 0 0 0 0 0
0 0 0 0 0 0 0 2 0 0 0 0 0 0 0 0 0 0 0 0 0 0
0 0 0 0 0 0 0 1 0 0 0 0 0 0 0 0 0 0 0 0 0 0
0 0 0 0 0 0 0 0 0 0 0 0 0 0 0 0 0 0 0 0 0 0
0 0 0 0 0 0 0 0 0 0 0 0 0 0 0 0 0 0 0 0 0 0

GFSNIL_con_mucape_030.txt.gz
CAPE
0 0 0 0 0 0 0 0 1 19 29 33 65 74 80 85 67 76 61 20 30 28
0 1 0 0 0 0 0 0 0 4 12 22 38 58 81 70 78 59 41 34 30 21
0 0 0 0 0 0 0 0 0 0 0 6 30 60 60 68 59 47 58 41 25 22
0 0 0 0 0 0 0 0 0 0 1 10 35 66 69 76 54 31 22 7 0 30
0 0 0 0 0 0 0 0 1 9 19 26 35 53 51 40 13 13 18 29 33 44
0 0 0 0 0 0 0 0 7 17 22 16 30 45 25 1 0 0 0 32 42 30
0 0 0 0 0 0 0 4 12 17 12 12 17 7 0 0 0 18 32 23 8 0
0 0 0 0 0 0 1 7 18 17 19 8 13 0 0 0 23 25 10 0 0 0
0 0 0 0 0 0 3 13 21 22 15 16 0 0 0 0 0 3 0 0 0 0
0 0 0 0 0 0 5 16 20 25 32 30 0 0 0 0 0 0 0 0 0 0
0 0 0 0 0 3 4 8 26 28 28 3 0 0 0 0 0 0 0 0 0 0
0 0 0 0 0 6 1 9 19 28 31 0 0 0 0 0 0 0 0 0 0 0
0 0 0 0 4 4 3 7 10 18 0 0 0 0 0 0 0 0 0 0 0 0
0 0 0 2 7 7 10 1 0 0 0 0 0 0 0 0 0 0 0 0 0 0

GFSNIL_con_mucape_033.txt.gz
CAPE
0 2 6 0 0 0 0 0 0 0 0 1 7 14 42 78 108 101 67 82 53 54
0 2 0 0 0 0 0 0 0 0 0 0 0 3 25 76 93 100 99 80 73 72
2 0 0 0 0 0 0 0 0 0 0 0 0 6 22 40 68 62 102 72 46 43
1 0 0 0 0 0 0 0 0 0 0 0 6 16 16 42 62 49 43 34 45 42
0 0 0 0 0 0 0 0 0 0 3 10 13 11 30 39 15 29 26 26 25 20
0 0 0 0 0 0 0 0 0 5 11 14 13 18 21 16 12 27 25 31 37 25
0 0 0 0 0 0 0 0 3 9 15 17 16 12 11 15 23 30 33 26 20 11
0 0 0 0 0 0 0 1 5 13 16 18 18 10 3 16 28 16 14 15 7 2
0 0 0 0 0 0 0 2 7 22 22 21 16 0 0 0 0 1 4 5 0 0
0 0 0 0 0 0 1 6 14 28 24 27 29 0 0 0 0 0 2 0 0 0
0 0 0 0 0 2 6 12 11 24 26 32 11 0 0 0 0 0 0 0 0 0
0 0 0 0 0 3 9 13 12 22 33 24 6 0 0 0 0 0 0 0 0 0
0 0 0 0 1 5 9 13 13 11 17 9 0 0 0 0 0 0 0 0 0 0
0 0 0 0 0 4 13 20 18 13 15 2 0 0 0 0 0 0 0 0 0 0

GFSNIL_con_mucape_036.txt.gz
CAPE
0 0 0 0 5 0 0 0 0 0 0 0 0 0 0 0 13 37 30 29 26 18
0 0 0 0 2 0 0 0 0 0 0 0 0 0 0 0 8 36 10 5 18 12
1 4 1 1 0 0 0 0 0 0 0 0 0 0 1 6 2 6 9 10 10 9
13 6 10 9 2 0 0 0 0 0 0 0 0 1 0 0 0 1 0 2 1 0
11 12 5 12 0 0 0 0 0 0 0 0 0 0 0 0 6 1 0 0 0 0
19 24 2 5 0 0 0 0 0 0 0 0 1 0 2 2 5 7 1 3 9 3
23 0 2 0 0 0 0 0 0 0 0 6 0 0 1 3 7 5 1 3 1 0
22 0 0 0 0 0 0 0 0 0 5 1 0 1 0 1 0 0 0 0 0 0
1 5 0 0 0 0 0 0 1 0 3 3 0 0 0 0 0 0 0 0 0 0
14 0 0 0 0 0 0 0 0 2 7 8 5 0 2 0 0 0 0 0 0 0
0 0 0 0 0 0 0 2 0 0 4 9 9 0 1 3 0 0 0 0 0 0
0 0 2 0 0 0 0 0 0 0 2 8 12 2 0 0 0 0 0 0 0 0
0 0 0 0 0 0 0 0 0 1 1 2 2 2 1 0 0 0 0 0 0 0
0 0 0 0 0 0 0 0 0 1 0 0 0 0 0 0 0 0 0 0 0 0

GFSNIL_con_mucape_039.txt.gz
CAPE
7 8 8 8 2 4 6 16 2 0 0 0 0 0 0 0 0 0 0 3 10 5
7 14 21 8 4 8 10 13 16 0 0 0 0 0 0 0 0 0 0 0 3 7
4 7 6 12 15 5 16 0 0 0 0 0 0 0 0 0 0 0 0 0 0 3
7 17 22 6 22 31 0 2 0 0 0 0 0 0 0 0 0 0 0 0 1 2
19 24 13 30 32 6 6 0 0 0 0 0 0 0 0 0 0 0 0 0 0 0
34 12 31 24 2 11 0 0 0 0 0 0 0 0 0 0 0 0 0 0 0 0
12 17 14 7 3 0 1 1 3 0 0 0 0 0 0 0 0 0 0 0 0 0
13 19 20 0 0 0 0 6 0 0 0 0 0 0 0 0 0 0 0 0 0 0
18 19 4 0 0 0 0 1 0 0 0 0 0 5 3 6 0 1 0 0 0 0
11 11 6 0 0 0 0 0 0 0 0 0 0 5 12 7 4 3 0 0 0 0
8 3 0 0 0 0 0 0 2 2 1 1 0 4 9 7 2 0 0 0 0 0
0 0 0 0 0 0 0 0 0 0 0 0 0 7 12 13 10 4 0 0 0 0
3 0 0 0 0 0 0 0 0 0 0 0 1 4 2 0 0 0 0 0 0 0
0 0 0 0 0 0 0 0 0 0 0 4 3 4 2 0 0 0 0 0 0 0

GFSNIL_con_mucape_042.txt.gz
CAPE
20 16 56 35 28 29 34 23 8 0 0 0 3 0 0 0 0 0 0 0 0 0
42 95 73 52 63 54 18 34 0 10 16 0 0 0 0 0 0 0 0 0 0 0
87 60 54 62 58 46 34 8 3 12 0 2 0 0 0 0 0 0 0 0 0 0
52 35 36 43 43 43 4 9 21 1 1 0 0 0 0 0 0 0 0 0 0 0
34 27 62 51 41 25 12 6 11 0 0 0 0 0 0 0 0 0 0 0 0 0
78 72 73 63 19 22 22 13 0 0 0 0 0 0 0 0 0 0 0 0 0 0
52 44 48 36 23 11 8 1 0 0 0 0 0 0 0 0 1 7 0 0 0 0
53 23 5 4 3 8 3 4 0 0 0 0 0 0 0 0 1 7 5 0 0 0
42 49 43 12 6 1 0 0 0 0 0 0 0 0 0 2 7 20 13 1 2 0
41 31 45 12 7 5 0 0 0 0 0 0 0 0 3 1 13 18 16 5 0 0
27 4 4 7 0 0 0 0 0 0 0 0 0 0 3 3 11 16 18 14 5 0
30 20 23 0 0 0 0 0 0 0 0 0 0 0 0 7 12 5 2 8 1 0
15 4 0 0 0 0 0 0 0 0 0 0 0 0 0 9 10 5 0 0 0 0
0 0 0 0 0 0 0 0 0 0 0 0 0 3 8 5 3 4 0 0 0 0

GFSNIL_con_mucape_045.txt.gz
CAPE
139 324 152 62 35 32 47 19 14 34 26 1 2 6 14 0 0 0 0 0 0 0
188 291 183 51 49 56 35 25 4 7 1 0 7 0 0 0 0 0 0 0 0 0
328 160 145 64 79 45 41 4 5 9 1 12 8 3 0 0 0 0 0 0 0 0
153 98 64 39 56 66 55 11 21 5 10 15 20 1 0 0 0 0 0 0 0 0
86 92 70 56 76 72 80 59 4 10 5 4 1 0 0 0 0 0 0 0 0 0
86 69 70 53 53 25 33 23 5 4 6 2 0 0 0 0 0 0 0 0 0 0
48 54 63 57 47 31 44 25 15 15 12 0 0 0 0 0 0 0 0 1 4 2
68 68 72 55 11 0 2 3 10 4 0 0 0 0 0 0 0 0 0 4 9 0
76 60 40 25 26 10 0 2 0 0 0 0 0 0 0 0 0 1 1 10 11 9
42 41 41 38 18 7 0 0 0 0 0 0 0 0 0 0 0 1 1 16 16 10
41 33 23 14 5 0 0 0 0 0 0 0 0 0 0 0 0 0 5 17 15 0
20 18 11 7 0 0 0 0 0 0 0 0 0 0 0 0 0 0 3 8 8 0
6 6 0 0 0 0 0 0 0 0 0 0 0 0 0 0 0 1 2 4 11 0
0 0 0 0 0 0 0 0 0 0 0 0 0 0 0 0 1 6 4 1 7 0

GFSNIL_con_mucape_048.txt.gz
CAPE
374 381 196 82 149 27 12 5 10 15 25 10 0 1 5 13 11 19 4 0 0 0
378 384 295 129 322 50 28 36 18 8 7 11 20 1 19 8 9 3 0 0 0 0
457 490 285 173 185 73 62 56 48 27 13 16 1 8 3 6 2 0 0 0 0 0
578 509 174 180 162 59 55 60 58 48 42 14 2 1 8 0 0 0 0 0 0 0
467 349 301 107 75 78 71 45 20 0 0 2 10 0 0 0 0 0 0 0 0 0
316 175 44 68 72 64 39 36 28 8 3 12 2 0 0 0 0 0 0 0 0 0
65 49 41 56 30 30 16 21 0 4 0 0 0 0 0 0 0 0 0 0 0 0
51 46 53 39 32 13 11 4 8 1 0 0 0 0 0 0 0 0 0 0 0 0
49 76 64 26 41 14 42 32 23 0 0 0 0 0 0 0 0 0 0 0 0 2
90 55 45 37 16 25 11 32 0 0 0 0 0 0 0 0 0 0 0 0 0 5
31 34 50 47 42 24 6 0 0 0 0 0 0 0 0 0 0 0 0 0 0 5
37 31 37 25 4 0 0 0 0 0 0 0 0 0 0 0 0 0 0 0 2 11
17 9 2 0 0 0 0 0 0 0 0 0 0 0 0 0 0 0 0 0 5 7
0 0 0 0 0 0 0 0 0 0 0 0 0 0 0 0 0 0 0 0 2 3

GFSNIL_con_mucape_051.txt.gz
CAPE
102 192 295 281 215 127 42 57 24 20 8 1 17 4 19 20 2 0 0 0 0 0
213 204 194 155 180 106 65 45 27 18 32 24 39 40 23 10 0 0 0 0 0 0
299 206 176 157 205 151 90 77 21 4 63 43 28 31 31 16 2 2 0 0 0 0
231 196 190 207 234 217 70 63 52 44 55 33 22 0 3 3 1 0 0 0 0 0
255 254 229 275 140 69 96 57 71 67 22 19 22 20 0 0 0 0 0 0 0 0
233 205 93 75 65 56 56 53 43 29 32 11 0 0 0 0 0 0 0 0 0 0
208 66 64 39 43 35 40 21 6 16 8 0 1 0 0 0 0 0 0 0 0 0
62 37 16 29 11 44 29 13 2 0 1 0 0 0 0 0 0 0 0 0 0 0
26 24 4 7 31 11 10 2 3 4 0 0 0 0 0 0 0 0 0 0 0 0
5 10 16 16 24 3 11 29 12 0 0 0 0 0 0 0 0 0 0 0 0 0
9 17 27 10 0 4 5 3 0 0 0 0 0 0 0 0 0 0 0 0 0 0
26 14 1 11 6 1 0 0 0 0 0 0 0 0 0 0 0 0 0 0 0 0
25 4 0 5 0 0 0 0 0 0 0 0 0 0 0 0 0 0 0 0 0 0
0 0 0 0 0 0 0 0 0 0 0 0 0 0 0 0 0 0 0 0 0 0

GFSNIL_con_mucape_054.txt.gz
CAPE
862 885 667 412 201 106 127 31 41 32 39 14 5 3 6 14 4 3 6 0 0 2
786 578 555 259 126 114 133 155 75 31 5 23 6 6 14 8 2 0 0 0 0 0
673 570 420 256 177 80 80 112 98 53 5 3 0 24 7 4 11 0 0 0 0 0
934 746 223 148 109 88 99 141 98 37 13 27 14 23 1 0 0 0 0 0 0 0
590 225 236 141 74 80 74 39 33 66 91 49 58 25 13 0 0 0 0 0 0 0
322 325 132 43 48 47 48 68 23 50 68 46 10 12 2 0 0 0 0 0 0 0
523 265 135 50 41 36 36 44 35 37 31 39 5 1 0 0 0 0 0 0 0 5
326 145 30 28 20 17 46 14 3 2 7 7 3 1 0 0 0 0 0 6 6 17
191 118 70 10 0 1 2 10 28 1 2 0 0 0 0 0 3 8 8 16 14 14
0 0 0 0 3 8 1 0 9 4 1 0 0 0 0 0 0 0 5 8 11 6
0 0 0 1 3 0 0 0 1 0 0 0 0 0 0 0 0 0 0 3 4 7
0 0 2 0 0 0 0 0 0 0 0 0 0 0 0 0 0 0 0 0 2 6
0 0 0 0 0 0 0 0 0 0 0 0 0 0 0 0 0 0 0 0 16 3
0 0 0 0 0 0 0 0 0 0 0 0 0 0 0 0 0 0 0 0 0 20

GFSNIL_con_mucape_057.txt.gz
CAPE
1294 1329 1406 1025 1060 961 665 241 30 56 56 0 0 4 22 16 10 17 2 13 1 0
1541 1813 1490 1370 1128 795 606 105 49 54 112 35 3 21 0 0 19 18 8 17 1 0
1675 1276 1085 901 586 415 188 63 39 24 52 31 7 2 0 8 5 13 5 0 2 2
985 899 810 563 530 522 122 52 26 57 68 17 4 1 5 0 20 16 2 0 0 0
1007 777 764 630 578 542 272 173 26 44 23 0 61 9 6 1 0 15 0 0 0 0
856 947 957 561 486 240 97 66 40 44 55 20 9 4 9 0 0 1 2 0 0 0
768 456 386 317 200 85 43 72 53 38 42 11 24 30 3 12 8 2 0 0 0 25
406 325 339 212 127 39 40 56 23 10 9 8 13 0 7 4 0 0 0 0 20 34
331 242 254 226 154 82 15 1 0 0 0 8 4 7 1 0 0 0 0 5 3 7
16 3 0 0 0 0 0 0 0 0 3 6 0 0 0 0 0 0 0 0 3 3
0 0 0 0 0 0 0 0 0 0 0 0 0 0 0 0 0 0 0 0 1 6
0 0 0 0 0 0 0 0 0 0 0 0 0 0 0 0 0 0 0 0 0 3
0 0 0 0 0 0 0 0 0 0 0 0 0 0 0 0 0 0 0 0 0 0
0 0 0 0 0 0 0 0 0 0 0 0 0 0 0 0 0 0 0 0 0 0

GFSNIL_con_mucape_060.txt.gz
CAPE
775 704 708 531 528 452 346 244 186 89 52 30 25 63 10 4 8 0 0 0 7 9
643 656 831 640 829 647 451 442 513 141 90 34 86 23 21 1 0 0 0 0 0 3
721 851 710 1132 1001 683 787 626 455 170 97 31 83 47 1 4 12 7 2 0 7 14
1044 1166 930 690 621 567 577 361 408 47 9 76 49 31 0 1 5 15 8 0 0 8
1099 1030 702 569 444 395 275 608 234 70 134 69 18 8 14 10 25 13 10 2 0 0
842 750 682 800 825 386 228 354 290 150 119 41 42 25 21 41 13 9 9 10 11 3
798 540 696 451 364 284 234 209 137 62 34 45 42 10 16 13 13 9 0 6 4 0
597 515 428 371 211 145 79 78 56 25 11 6 9 4 11 2 8 0 1 1 0 0
349 258 190 151 109 114 72 3 0 0 0 0 0 0 10 12 9 0 0 0 0 0
199 105 37 2 0 0 0 0 0 0 0 0 0 3 2 1 0 0 0 0 0 0
8 0 0 0 0 0 0 0 0 0 0 0 0 0 0 0 0 0 0 0 0 0
0 0 0 0 0 0 0 0 0 0 0 0 0 0 0 0 0 0 0 0 0 0
0 0 0 0 0 0 0 0 0 0 0 0 0 0 0 0 0 0 0 0 0 0
0 0 0 0 0 0 0 0 0 0 0 0 0 0 0 0 0 0 0 0 0 0

GFSNIL_con_mucape_063.txt.gz
CAPE
39 160 175 68 47 48 134 178 204 171 119 57 20 26 27 36 30 53 35 29 2 0
78 77 264 231 170 115 166 179 263 233 124 151 91 26 23 22 27 12 0 1 14 1
395 372 324 410 355 241 133 242 306 293 348 466 62 159 7 29 21 0 0 1 9 6
246 422 344 338 189 144 41 198 344 422 486 367 90 36 18 19 6 6 18 2 37 31
321 257 289 22 259 202 268 193 247 210 265 73 8 41 16 18 25 17 26 1 24 19
573 257 340 210 313 223 383 186 136 169 94 39 81 57 17 42 19 6 33 20 13 4
562 412 484 373 174 177 224 152 138 51 61 26 51 11 13 0 8 10 24 20 0 0
693 612 399 182 78 155 70 47 28 23 5 11 9 11 8 8 12 10 5 6 1 0
420 395 191 87 83 30 28 40 0 0 6 10 3 0 0 0 0 4 6 0 0 0
197 116 71 79 62 20 0 0 0 0 0 0 0 0 0 0 0 0 0 0 0 0
118 68 43 2 0 0 0 0 0 0 0 0 0 0 0 0 0 0 0 0 0 0
83 33 11 0 0 0 0 0 0 0 0 0 0 0 0 0 0 0 0 0 0 0
10 0 0 0 0 0 0 0 0 0 0 0 0 0 0 0 0 0 0 0 0 0
0 0 0 0 0 0 0 0 0 0 0 0 0 0 0 0 0 0 0 0 0 0

GFSNIL_con_mucape_066.txt.gz
CAPE
0 4 27 44 42 33 36 20 60 74 98 133 183 124 78 71 15 42 77 36 28 13
0 21 40 41 71 91 74 44 32 62 85 109 87 52 43 26 19 40 32 4 1 0
7 38 42 113 60 94 84 84 76 102 136 163 138 91 46 13 4 23 28 14 5 2
40 78 76 81 126 82 29 134 60 19 145 162 114 132 122 132 9 32 17 3 0 5
65 189 268 294 151 79 22 50 90 65 115 319 243 128 163 1 34 25 14 6 9 19
99 256 209 246 190 44 22 57 129 135 238 222 123 308 18 41 41 25 10 16 17 9
276 70 10 56 129 302 131 155 231 203 265 114 134 77 8 26 29 10 16 7 25 16
222 158 255 155 206 251 221 202 225 175 219 96 54 28 79 16 10 25 20 16 24 5
257 350 236 403 531 215 110 126 110 143 91 58 6 16 12 11 13 6 6 3 0 4
466 505 285 266 205 140 123 90 58 21 5 5 5 2 1 1 0 0 0 1 0 0
347 295 195 126 130 64 62 27 0 0 1 0 0 0 0 0 0 0 0 0 0 0
148 122 103 77 76 63 3 0 0 0 0 0 0 0 0 0 0 0 0 0 0 0
118 118 80 60 35 0 0 0 0 0 0 0 0 0 0 0 0 0 0 0 0 0
44 35 26 0 0 0 0 0 0 0 0 0 0 0 0 0 0 0 0 0 0 0

GFSNIL_con_mucape_069.txt.gz
CAPE
0 0 0 0 0 0 0 0 0 21 26 16 35 76 137 160 111 113 97 80 63 41
0 0 0 0 0 0 0 1 19 7 25 43 77 59 50 74 83 100 76 32 56 16
0 0 0 0 6 3 15 34 50 92 36 37 36 47 72 103 24 8 31 49 13 34
0 0 0 0 0 11 22 92 48 50 11 40 87 86 117 105 35 46 4 0 30 51
0 0 0 0 2 28 93 83 21 99 0 33 48 60 166 152 81 63 68 26 21 26
8 0 1 1 36 93 94 106 8 1 34 188 88 84 207 227 97 55 21 2 17 9
44 20 15 36 60 114 235 184 51 90 61 67 81 141 275 147 69 14 25 16 13 7
137 147 181 175 143 109 216 201 206 227 105 91 244 181 259 75 17 15 21 16 3 5
296 250 372 362 301 99 95 128 116 163 194 272 213 148 98 37 51 25 40 7 3 12
356 281 316 332 275 203 177 225 161 254 153 126 88 137 40 9 7 9 12 13 10 3
424 394 171 113 238 231 230 214 187 101 78 108 66 29 2 6 6 7 12 2 0 0
267 192 133 278 227 157 260 180 76 72 69 35 9 5 2 0 4 1 0 0 0 0
136 118 137 110 114 114 72 64 65 24 7 6 0 2 1 0 0 0 0 0 0 0
214 183 85 88 255 92 74 45 3 0 0 0 0 0 0 0 0 0 0 0 0 0

GFSNIL_con_mucape_072.txt.gz
CAPE
0 0 0 0 0 0 0 0 0 0 1 19 34 48 64 88 89 104 95 59 52 62
0 0 0 0 0 0 0 0 0 0 0 4 8 13 41 39 54 3 26 68 76 67
0 0 0 0 0 0 0 0 0 0 0 10 21 16 24 42 44 26 32 77 48 31
0 0 0 0 0 0 0 0 0 0 12 19 11 49 31 21 40 87 83 68 21 1
0 0 0 0 0 0 0 0 2 30 49 44 21 16 9 10 96 99 85 72 35 4
0 0 1 0 0 0 0 0 2 3 35 32 20 0 12 57 86 63 117 110 73 33
26 11 11 4 3 13 6 0 30 15 43 64 16 5 30 47 104 76 172 98 77 25
244 36 22 14 18 21 21 21 6 8 70 122 40 95 111 54 67 97 196 107 63 16
371 303 181 51 55 36 46 79 106 55 257 313 154 125 95 116 294 94 86 77 43 43
436 373 243 179 125 108 99 149 179 195 207 128 86 121 164 148 162 113 89 82 13 9
344 362 303 219 162 145 201 695 480 131 205 131 222 138 136 63 77 78 60 8 17 6
267 344 356 224 171 348 171 149 67 138 165 102 155 84 21 42 36 48 7 7 9 5
314 366 342 246 160 90 43 149 52 31 60 110 113 38 73 9 7 3 2 4 4 1
411 232 146 117 111 66 37 76 76 78 101 109 43 18 2 2 2 0 1 0 0 0

GFSNIL_con_mucape_075.txt.gz
CAPE
0 0 0 0 0 0 0 1 16 19 22 30 50 85 133 151 138 106 43 18 15 29
0 0 0 0 0 0 0 0 0 0 3 5 18 47 83 99 102 76 18 16 6 6
0 0 0 0 0 0 0 0 0 0 0 0 3 40 71 70 67 59 39 32 4 1
0 0 0 0 0 0 0 0 0 0 0 0 0 2 16 53 57 46 61 40 57 70
0 0 0 0 0 0 0 0 0 0 0 0 0 7 31 33 48 39 25 15 69 64
4 0 0 0 0 0 0 0 0 0 0 0 41 22 38 66 0 2 9 46 72 54
263 32 9 0 0 0 0 0 0 0 0 9 11 24 24 50 0 60 96 64 114 84
273 330 55 20 2 3 0 14 11 6 0 17 2 18 57 60 20 15 16 22 28 103
253 339 355 246 36 12 12 22 33 28 24 17 8 0 45 97 116 120 81 21 54 26
141 260 331 321 307 231 90 36 47 47 52 72 57 60 95 149 154 113 78 86 109 31
104 168 290 328 296 259 229 195 184 134 118 74 128 186 130 98 72 101 81 95 104 94
138 150 187 256 283 264 229 179 126 103 120 102 221 103 89 82 53 57 26 29 23 46
200 214 199 239 272 277 121 88 152 175 210 272 113 21 80 13 67 39 25 26 11 8
196 223 240 223 238 158 143 119 116 120 149 39 16 33 15 34 65 24 5 42 6 6

GFSNIL_con_mucape_078.txt.gz
CAPE
17 2 21 61 47 14 5 5 6 2 22 99 167 258 228 401 361 355 339 300 285 260
49 37 39 33 50 27 10 24 30 115 116 196 187 138 147 191 240 257 298 332 411 422
15 22 28 41 45 48 53 53 91 87 153 138 73 102 106 136 149 175 401 414 179 171
6 14 20 39 31 20 41 24 23 32 43 35 38 60 136 122 131 156 223 127 126 60
6 3 18 89 71 76 52 38 6 10 3 16 16 60 115 99 75 76 69 51 0 1
10 5 1 1 5 9 9 26 22 26 88 63 76 60 85 84 17 17 13 13 4 0
81 35 5 0 0 6 3 1 5 23 34 52 18 4 19 58 81 72 5 17 1 0
255 255 124 15 12 5 1 0 0 3 7 36 21 15 6 15 12 4 16 18 16 25
183 265 286 283 197 52 17 0 3 6 16 54 0 0 0 4 4 15 28 27 10 48
127 157 189 224 256 287 97 40 13 30 9 2 12 7 5 13 23 0 1 22 54 48
110 77 90 233 287 308 290 257 202 93 20 19 14 43 54 55 77 76 28 79 93 149
110 90 73 130 203 257 275 272 279 232 163 134 118 158 89 59 71 104 139 89 134 90
102 102 97 79 116 210 258 251 248 214 139 91 139 164 214 142 89 100 143 77 119 65
124 96 79 118 134 149 144 162 163 168 151 140 121 146 100 110 43 69 45 42 56 64

GFSNIL_con_mucape_081.txt.gz
CAPE
42 39 35 3 5 0 0 0 0 0 1 3 34 101 320 294 315 573 435 479 296 181
57 40 31 22 7 0 6 7 12 6 14 12 81 92 235 224 193 331 160 353 524 414
38 46 58 56 57 63 76 66 39 55 26 23 14 74 118 170 211 271 332 432 399 412
138 108 122 269 283 203 140 50 45 43 29 41 61 114 140 169 219 241 271 294 323 317
415 307 253 219 317 394 226 54 14 41 23 42 70 134 129 153 135 186 235 274 276 282
451 310 345 357 311 248 222 101 65 46 47 35 80 144 176 179 179 196 233 291 251 94
439 308 286 405 341 308 132 126 122 46 55 68 72 89 114 115 128 157 127 233 149 2
529 325 150 192 243 300 295 228 193 155 124 132 116 70 150 128 150 152 155 87 55 59
339 279 244 291 262 191 204 197 184 110 105 138 23 0 0 5 197 76 112 22 20 13
534 398 370 234 194 232 225 181 128 118 103 126 146 0 0 0 4 9 23 14 6 11
753 693 530 390 276 272 316 287 287 244 234 254 198 24 6 24 17 4 0 2 6 44
787 747 741 676 573 476 360 296 218 207 182 201 213 35 26 33 26 17 32 43 124 175
695 761 687 705 732 604 351 248 231 234 174 128 159 137 125 66 115 134 137 132 76 205
544 420 511 550 594 423 134 137 130 221 160 162 142 127 125 96 124 152 171 193 151 163

GFSNIL_con_mucape_084.txt.gz
CAPE
0 0 0 1 0 0 0 0 0 0 0 3 34 63 81 48 32 79 104 89 61 58
5 0 0 0 4 5 10 5 7 7 4 8 1 4 18 48 28 40 81 28 38 37
12 19 3 2 0 0 2 9 2 8 17 11 17 6 12 25 47 51 95 95 64 67
11 17 2 3 0 0 0 0 1 4 8 9 11 2 8 3 3 45 30 40 51 68
9 9 4 15 12 0 0 0 0 0 0 0 1 2 0 0 0 0 21 26 69 75
1 4 7 13 16 8 0 0 0 0 0 0 0 0 0 0 0 0 0 4 42 40
47 47 10 0 5 44 31 13 9 4 0 0 1 0 0 0 0 0 6 13 33 62
89 84 95 92 40 8 35 47 31 5 0 0 3 1 0 0 0 0 11 37 48 39
97 149 107 66 71 61 66 46 38 32 24 8 0 0 0 0 0 3 5 5 10 7
123 121 209 107 64 92 91 96 62 52 16 6 11 15 12 4 1 9 12 13 10 22
483 242 178 181 109 92 107 126 142 131 100 49 38 49 46 39 42 38 8 15 20 21
620 505 370 219 193 147 103 89 129 138 159 147 115 79 97 79 43 28 40 29 13 7
595 589 568 462 379 247 147 120 88 112 122 147 110 139 156 107 184 73 92 53 42 21
676 583 562 586 542 518 361 234 190 185 204 134 133 162 88 80 40 26 21 41 8 18

GFSNIL_con_mucape_090.txt.gz
CAPE
1 0 0 0 0 0 6 17 3 1 0 8 2 34 13 8 3 2 46 31 15 10
0 0 0 0 0 0 5 11 9 0 0 0 0 5 9 4 4 26 26 48 55 28
2 2 0 0 0 0 0 3 9 2 0 0 0 0 16 14 23 39 38 48 61 42
1 1 2 0 0 0 0 0 0 2 0 8 3 0 0 15 36 36 27 32 38 31
1 1 0 0 0 0 0 0 0 0 0 0 0 4 7 0 0 0 1 6 6 8
6 0 2 1 0 0 0 0 0 0 0 0 0 0 0 2 2 0 4 3 1 3
0 1 1 1 1 0 0 0 0 0 0 0 0 0 0 0 0 0 0 0 0 0
92 0 0 0 0 0 0 0 0 0 0 0 0 0 0 0 0 0 0 0 0 0
238 157 152 80 13 0 0 0 1 5 0 0 0 0 0 0 0 0 0 0 0 0
229 146 125 134 99 122 93 62 36 26 25 34 54 21 4 0 0 0 0 0 0 0
199 199 215 246 355 272 138 106 114 105 53 34 48 64 79 62 13 4 1 2 10 8
161 205 223 197 237 167 238 149 145 143 141 104 121 113 97 53 21 19 6 20 35 22
6 101 78 243 302 116 110 169 194 149 140 200 173 164 145 152 181 123 93 59 36 22
0 0 0 5 83 186 159 130 137 262 426 349 265 363 151 249 209 111 212 78 130 68